Вернуться в каталог

SL-8 DEB

АктивенLEO
NORAD 21173·DEBRIS·🇷🇺 Russia

Запущен Feb 12, 1991 с Plesetsk Cosmodrome

Loading…

Ближайшие Пролёты (ближайшие 24 часа)

TLE

СвежийSource: Space-Track

Эпоха: Sep 13, 2026, 21:28 UTC

1 21173U 91009AL  26256.89491208  .00000055  00000-0  65170-3 0  9997
2 21173  74.1118 170.1620 0135828  92.5786 336.7892 12.19286120581283

Отслеживайте SL-8 DEB в реальном времени с AllMySat

Download on the App Store